FW2969 Weather Reports


time (UTC)temp
C
wind
direction
speed
KPH
gust
KPH
rain 1hr
cm
rain 24hr
cm
rain mn
cm
humidity
%
barometer
mb
20260901150020 23 310 0.0 4.8 0.00 0.03 0.03 86 1010.0
20260901144521 23 300 1.6 9.7 0.00 0.03 0.03 86 1010.0
20260901143018 23 319 3.2 8.0 0.00 0.03 0.03 85 1010.1
20260901141519 23 281 0.0 12.9 0.00 0.03 0.03 84 1009.9
20260901140019 24 286 3.2 9.7 0.00 0.03 0.03 84 1010.0
20260901134517 24 298 3.2 12.9 0.00 0.03 0.03 83 1010.0
20260901133016 25 311 1.6 14.5 0.00 0.03 0.03 82 1010.0
20260901131516 25 288 4.8 9.7 0.00 0.03 0.03 80 1009.9
20260901130016 25 218 3.2 12.9 0.00 0.03 0.03 79 1009.9
20260901124514 25 295 3.2 11.3 0.00 0.03 0.03 79 1009.9
20260901123012 25 315 4.8 14.5 0.00 0.03 0.03 79 1010.0
20260901121512 25 275 1.6 16.1 0.00 0.03 0.03 79 1010.1
20260901120008 25 250 3.2 12.9 0.00 0.03 0.03 79 1010.2
20260901114507 25 259 4.8 14.5 0.00 0.03 0.03 80 1010.2
20260901113006 25 303 3.2 14.5 0.00 0.03 0.03 79 1010.2
20260901111507 25 307 3.2 9.7 0.00 0.03 0.03 80 1010.3
20260901110002 25 255 3.2 9.7 0.00 0.03 0.03 80 1010.2
20260901104501 24 290 3.2 12.9 0.00 0.03 0.03 80 1010.2
20260901103100 24 319 1.6 11.3 0.00 0.03 0.03 82 1010.3
20260901101559 24 315 4.8 11.3 0.00 0.03 0.03 81 1010.3
20260901100100 24 300 3.2 9.7 0.00 0.03 0.03 82 1010.2
20260901094558 23 324 3.2 12.9 0.00 0.03 0.03 83 1010.3
20260901093059 23 320 0.0 12.9 0.00 0.03 0.03 84 1010.3
20260901091604 23 282 3.2 9.7 0.00 0.03 0.03 84 1010.4
20260901090100 23 319 4.8 14.5 0.00 0.03 0.03 84 1010.4
20260901084554 23 307 6.4 11.3 0.00 0.03 0.03 83 1010.4
20260901083054 23 286 6.4 14.5 0.00 0.03 0.03 83 1010.4
20260901081555 23 296 6.4 16.1 0.00 0.03 0.03 80 1010.4
20260901080108 24 307 3.2 9.7 0.00 0.03 0.03 77 1010.5
20260901074551 24 294 3.2 12.9 0.00 0.03 0.03 75 1010.5
20260901073049 24 303 0.0 6.4 0.00 0.03 0.03 72 1010.5
20260901071552 24 269 0.0 6.4 0.00 0.03 0.03 69 1010.5
20260901070057 23 228 0.0 6.4 0.00 0.03 0.03 68 1010.5
20260901064603 23 302 1.6 8.0 0.00 0.03 0.03 65 1010.4
20260901063053 23 308 1.6 6.4 0.00 0.03 0.03 64 1010.4
20260901061541 23 18 0.0 6.4 0.00 0.03 0.03 65 1010.3
20260901060041 22 309 0.0 9.7 0.00 0.03 0.03 65 1010.2
20260901054534 21 310 0.0 4.8 0.00 0.03 0.03 68 1010.0
20260901053030 21 332 0.0 6.4 0.00 0.03 0.03 73 1009.9
20260901051526 20 31 0.0 3.2 0.00 0.03 0.03 80 1009.8
20260901050022 19 26 0.0 1.6 0.00 0.03 0.03 87 1009.7
20260901044520 19 27 0.0 3.2 0.00 0.03 0.03 93 1009.7
20260901043019 18 28 0.0 0.0 0.00 0.03 0.03 95 1009.8
20260901041519 17 28 0.0 0.0 0.00 0.03 0.03 95 1009.6
20260901040018 17 28 0.0 0.0 0.00 0.03 0.03 95 1009.5
20260901034516 17 28 0.0 0.0 0.00 0.03 0.03 96 1009.3
20260901033029 18 28 0.0 1.6 0.00 0.03 0.03 96 1009.3
20260901031521 18 28 0.0 0.0 0.00 0.03 0.03 96 1009.3
20260901030013 18 28 0.0 0.0 0.00 0.03 0.03 96 1009.2
20260901024513 18 28 0.0 0.0 0.00 0.03 0.03 96 1009.2
20260901023011 18 28 0.0 0.0 0.00 0.03 0.03 96 1009.2
20260901021514 18 28 0.0 0.0 0.00 0.03 0.03 96 1009.2
20260901020009 18 28 0.0 3.2 0.00 0.03 0.03 96 1009.1
20260901014509 18 15 0.0 0.0 0.00 0.03 0.03 95 1009.1
20260901013008 18 16 0.0 1.6 0.00 0.03 0.03 96 1009.2
20260901011511 18 16 0.0 3.2 0.00 0.03 0.03 95 1009.2
20260901010015 18 18 0.0 1.6 0.03 0.03 0.03 96 1009.2
20260901004503 18 356 0.0 3.2 0.03 0.03 0.03 96 1009.3
20260901003003 18 12 0.0 3.2 0.03 0.03 0.03 95 1009.4
20260901001503 18 348 0.0 3.2 0.03 0.03 0.03 96 1009.4
20260901000001 18 292 0.0 1.6 0.00 0.00 0.00 95 1009.6
20260831234601 18 290 0.0 0.0 0.00 0.00 0.00 95 1009.5
20260831233059 18 290 0.0 0.0 0.00 0.00 0.00 95 1009.4
20260831231612 18 290 0.0 0.0 0.00 0.00 0.00 95 1009.4
20260831230058 18 290 0.0 0.0 0.00 0.00 0.00 95 1009.5
20260831224556 18 290 0.0 0.0 0.00 0.00 0.00 95 1009.6
20260831223101 18 290 0.0 0.0 0.00 0.00 0.00 95 1009.7
20260831221553 18 290 0.0 0.0 0.00 0.00 0.00 94 1009.7
20260831220053 19 290 0.0 1.6 0.00 0.00 0.00 95 1009.8
20260831214550 19 290 0.0 0.0 0.00 0.00 0.00 95 1009.9
20260831213050 18 290 0.0 0.0 0.00 0.00 0.00 95 1009.8
20260831211600 18 290 0.0 0.0 0.00 0.00 0.00 94 1009.9
20260831210046 19 290 0.0 0.0 0.00 0.00 0.00 94 1010.0
20260831204546 19 290 0.0 0.0 0.00 0.00 0.00 94 1010.0
20260831203045 19 290 0.0 0.0 0.00 0.00 0.00 94 1010.2
20260831201555 19 290 0.0 0.0 0.00 0.00 0.00 94 1010.0
20260831200045 19 290 0.0 0.0 0.00 0.00 0.00 94 1010.1
20260831194628 19 290 0.0 0.0 0.00 0.00 0.00 93 1010.0
20260831193044 20 290 0.0 0.0 0.00 0.00 0.00 94 1010.1
20260831191542 20 290 0.0 1.6 0.00 0.00 0.00 93 1010.2
20260831190047 20 290 0.0 0.0 0.00 0.00 0.00 93 1010.2
20260831184552 20 290 0.0 0.0 0.00 0.00 0.00 93 1010.2
20260831183042 20 290 0.0 0.0 0.00 0.00 0.00 93 1010.2
20260831181547 20 290 0.0 0.0 0.00 0.00 0.00 93 1010.2
20260831180039 20 290 0.0 1.6 0.00 0.00 0.00 92 1010.3
20260831174543 20 290 0.0 0.0 0.00 0.00 0.00 92 1010.2
20260831173038 20 290 0.0 1.6 0.00 0.00 0.00 92 1010.1
20260831171544 20 290 0.0 0.0 0.00 0.00 0.00 91 1010.0
20260831170036 21 290 0.0 1.6 0.00 0.00 0.00 91 1009.9
20260831164536 21 290 0.0 3.2 0.00 0.00 0.00 91 1009.8
20260831163039 21 289 0.0 1.6 0.00 0.00 0.00 90 1009.8
20260831161535 21 289 0.0 1.6 0.00 0.00 0.00 89 1009.7
20260831160037 21 288 0.0 3.2 0.00 0.00 0.00 88 1009.5
20260831154537 21 267 0.0 4.8 0.00 0.00 0.00 87 1009.6
20260831153037 22 222 0.0 4.8 0.00 0.00 0.00 85 1009.5
20260831151531 22 286 0.0 4.8 0.00 0.00 0.00 83 1009.5